This demonstration page uses our WeatherBlox Daily Observations layout. Learn more.

Left ArrowRight Arrow

44.8408, -93.29828

Hourly Observations for April 25, 2022

Temp ( °F °C ) Dew Point ( °F °C ) Humidity (%) Winds ( mph kmh ) Pressure ( in mb ) Visibility ( mi km ) Precip ( " mm )
12:53 am 00:53 Cloudy 36 2.2 25 -3.9 64 64 WNW 20 31 29.91 1013 10 16 0.00 0.00
1:08 am 01:08 Cloudy 36 2.2 26 -3.3 67 67 W 18 30 29.94 1014 10 16 0.00 0.00
1:53 am 01:53 Cloudy 35 1.7 25 -3.9 67 67 WNW 14 22 29.91 1013 10 16 0.00 0.00
2:53 am 02:53 Cloudy 34 1.1 25 -3.9 70 70 WNW 18 30 29.92 1013 10 16 0.00 0.00
3:53 am 03:53 Cloudy 33 0.6 26 -3.3 75 75 WNW 13 20 29.95 1014 10 16 0.00 0.00
4:53 am 04:53 Cloudy 32 0 27 -2.8 82 82 WNW 13 20 29.97 1015 9 14 0.00 0.00
5:12 am 05:12 Cloudy 32 0 27 -2.8 82 82 WNW 14 22 30.01 1016 9 14 0.00 0.00
5:43 am 05:43 Cloudy with Light Freezing Drizzle 32 0 28 -2.2 85 85 WNW 12 19 30.02 1016 5 8 0.00 0.00
5:53 am 05:53 Cloudy with Light Freezing Drizzle 32 0 28 -2.2 85 85 WNW 12 19 29.99 1016 7 11 0.00 0.00
6:42 am 06:42 Cloudy with Light Freezing Drizzle 32 0 28 -2.2 85 85 WNW 13 20 30.04 1017 4 6 0.00 0.00
6:53 am 06:53 Cloudy with Light Freezing Drizzle 31 -0.6 28 -2.2 89 89 WNW 13 20 30.02 1017 8 13 0.00 0.00
7:05 am 07:05 Cloudy with Light Wintry Mix 31 -0.6 28 -2.2 89 89 WNW 13 20 30.05 1018 8 13 0.00 0.00
7:53 am 07:53 Cloudy with Light Wintry Mix 32 0 28 -2.2 85 85 WNW 14 22 30.04 1017 8 13 0.00 0.00
8:01 am 08:01 Cloudy with Light Wintry Mix 32 0 28 -2.2 85 85 WNW 12 19 30.07 1018 9 14 0.00 0.00
8:29 am 08:29 Cloudy with Light Wintry Mix 32 0 28 -2.2 85 85 WNW 10 17 30.09 1019 9 14 0.00 0.00
8:46 am 08:46 Cloudy with Light Wintry Mix 32 0 28 -2.2 85 85 WNW 16 26 30.09 1019 8 13 0.00 0.00
8:53 am 08:53 Cloudy with Light Wintry Mix 32 0 28 -2.2 85 85 WNW 13 20 30.07 1018 8 13 0.00 0.00
9:31 am 09:31 Cloudy 32 0 28 -2.2 85 85 NW 16 26 30.11 1019 9 14 0.00 0.00
9:53 am 09:53 Cloudy 33 0.6 27 -2.8 78 78 WNW 18 30 30.09 1019 10 16 0.00 0.00
10:53 am 10:53 Cloudy 34 1.1 27 -2.8 76 76 NW 15 24 30.11 1020 10 16 0.00 0.00
11:53 am 11:53 Cloudy 36 2.2 25 -3.9 64 64 WNW 20 31 30.13 1020 10 16 0.00 0.00
12:53 pm 12:53 Cloudy 35 1.7 24 -4.4 64 64 WNW 16 26 30.14 1021 10 16 0.00 0.00
1:07 pm 13:07 Cloudy 36 2.2 24 -4.4 62 62 NW 14 22 30.16 1021 10 16 0.00 0.00
1:29 pm 13:29 Cloudy 35 1.7 25 -3.9 67 67 NW 20 31 30.16 1021 10 16 0.00 0.00
1:53 pm 13:53 Cloudy 37 2.8 25 -3.9 62 62 NW 20 31 30.15 1021 10 16 0.00 0.00
2:09 pm 14:09 Cloudy 37 2.8 25 -3.9 62 62 WNW 20 31 30.17 1022 10 16 0.00 0.00
2:19 pm 14:19 Cloudy 37 2.8 24 -4.4 59 59 NW 21 33 30.17 1022 10 16 0.00 0.00
2:53 pm 14:53 Cloudy 37 2.8 24 -4.4 59 59 NW 18 30 30.16 1021 10 16 0.00 0.00
3:53 pm 15:53 Cloudy 36 2.2 24 -4.4 62 62 WNW 15 24 30.17 1022 10 16 0.00 0.00
4:44 pm 16:44 Cloudy 35 1.7 23 -5 61 61 NW 17 28 30.20 1023 10 16 0.00 0.00
4:53 pm 16:53 Cloudy 36 2.2 24 -4.4 62 62 NW 15 24 30.19 1022 10 16 0.00 0.00
5:53 pm 17:53 Cloudy 34 1.1 23 -5 64 64 NW 15 24 30.22 1023 10 16 0.00 0.00
6:20 pm 18:20 Cloudy 35 1.7 23 -5 61 61 NNW 14 22 30.24 1024 10 16 0.00 0.00
6:53 pm 18:53 Cloudy 34 1.1 21 -6.1 59 59 NW 16 26 30.24 1024 10 16 0.00 0.00
7:53 pm 19:53 Cloudy 33 0.6 20 -6.7 58 58 NW 15 24 30.25 1024 10 16 0.00 0.00
8:53 pm 20:53 Cloudy 32 0 20 -6.7 61 61 NW 16 26 30.28 1025 10 16 0.00 0.00
9:53 pm 21:53 Cloudy 31 -0.6 20 -6.7 64 64 WNW 15 24 30.30 1026 10 16 0.00 0.00
10:14 pm 22:14 Cloudy 31 -0.6 20 -6.7 64 64 NW 10 17 30.32 1027 10 16 0.00 0.00
10:37 pm 22:37 Cloudy 31 -0.6 19 -7.2 61 61 NW 15 24 30.32 1027 10 16 0.00 0.00
10:53 pm 22:53 Cloudy 31 -0.6 19 -7.2 61 61 NW 16 26 30.31 1026 10 16 0.00 0.00
11:00 pm 23:00 Cloudy 31 -0.6 19 -7.2 61 61 NW 18 30 30.33 1027 10 16 0.00 0.00
11:53 pm 23:53 Cloudy 31 -0.6 19 -7.2 61 61 NNW 8 13 30.32 1027 10 16 0.00 0.00

Powered by AerisWeather